Zurück zum Katalog

HULIANWANG DIGUI-143

AktivKommunikationLEO
NORAD 67441·PAYLOAD·🇨🇳 China

Gestartet Jan 13, 2026 von Wenchang Space Launch Site

Loading…

Nächste Überflüge (nächste 24 Stunden)

TLE

AktuellSource: Space-Track

Epoche: Sep 14, 2026, 14:15 UTC

1 67441U 26007G   26257.59440097 -.00000081  00000-0  92857-4 0  9992
2 67441  50.0093 125.0431 0000436  23.1403 336.9489 13.29328549 32680

Verfolge HULIANWANG DIGUI-143 in Echtzeit mit AllMySat

Download on the App Store